Location: Newark
(30.1000°N, 109.4667°E)
Time: 15:58:06
(UTC+00:00)

Altair - All Passes

Search period start: 19 February 2020 00:00
Search period end: 29 February 2020 00:00
Orbit: 1502 x 1682 km, 47.2° (Epoch: 18 February)

Date Brightness Start Highest point End Pass type
(mag) Time Alt. Az. Time Alt. Az. Time Alt. Az.
19 Feb - 01:55:12 10° NW 02:05:09 65° SW 02:15:07 10° SSE daylight
19 Feb - 04:04:16 10° W 04:08:47 14° WSW 04:13:18 10° SSW daylight
19 Feb - 15:05:30 10° SSE 15:10:56 17° ESE 15:16:26 10° E night (unlit)
19 Feb - 17:05:13 10° SW 17:14:29 77° SE 17:24:09 10° NE visible
19 Feb - 19:11:07 10° W 19:19:55 41° NNW 19:29:03 10° NE visible
19 Feb - 21:19:12 10° NW 21:27:18 28° N 21:35:36 10° ENE visible
19 Feb - 23:25:09 10° NW 23:34:35 45° NNE 23:44:10 10° E daylight
20 Feb - 01:29:57 10° NW 01:39:58 70° SW 01:50:02 10° SE daylight
20 Feb - 03:38:10 10° W 03:43:42 16° WSW 03:49:14 10° SSW daylight
20 Feb - 14:41:19 10° SSE 14:45:53 15° ESE 14:50:29 10° E night (unlit)
20 Feb - 16:40:10 10° SW 16:49:21 70° SE 16:58:54 10° NE night (unlit)
20 Feb - 18:45:45 10° W 18:54:37 43° NNW 19:03:49 10° NE visible
20 Feb - 20:53:50 10° WNW 21:01:52 28° N 21:10:09 10° NE visible
20 Feb - 22:59:58 10° NW 23:09:15 42° NNE 23:18:43 10° E daylight
21 Feb - 01:04:44 10° NW 01:14:47 76° SW 01:24:55 10° SE daylight
21 Feb - 03:12:17 10° W 03:18:36 19° WSW 03:24:55 10° SSW daylight
21 Feb - 14:17:29 10° SE 14:20:50 12° ESE 14:24:13 10° E night (unlit)
21 Feb - 16:15:08 10° SSW 16:24:13 64° SE 16:33:39 10° NE night (unlit)
21 Feb - 18:20:24 10° W 18:29:19 46° NNW 18:38:36 10° NE visible
21 Feb - 20:28:27 10° WNW 20:36:28 28° N 20:44:43 10° NE visible
21 Feb - 22:34:46 10° NW 22:43:55 40° NNE 22:53:15 10° E visible
22 Feb - 00:39:31 10° NW 00:49:35 82° SW 00:59:45 10° SE daylight
22 Feb - 02:46:33 10° W 02:53:30 21° SW 03:00:28 10° S daylight
22 Feb - 13:54:49 10° SE 13:55:47 10° ESE 13:56:45 10° ESE night (unlit)
22 Feb - 15:50:08 10° SSW 15:59:06 58° SE 16:08:24 10° ENE night (unlit)
22 Feb - 17:55:04 10° WSW 18:04:02 48° NNW 18:13:22 10° NE visible
22 Feb - 20:03:04 10° WNW 20:11:03 28° N 20:19:18 10° NE visible
22 Feb - 22:09:34 10° NW 22:18:34 38° NNE 22:27:46 10° E visible
23 Feb - 00:14:19 10° NW 00:24:23 88° SW 00:34:35 10° SE daylight
23 Feb - 02:20:55 10° WNW 02:28:24 24° SW 02:35:55 10° S daylight
23 Feb - 15:25:10 10° SSW 15:34:00 53° SE 15:43:07 10° ENE night (unlit)
23 Feb - 17:29:45 10° WSW 17:38:46 52° NNW 17:48:10 10° NE visible
23 Feb - 19:37:40 10° WNW 19:45:40 29° N 19:53:54 10° NE visible
23 Feb - 21:44:22 10° NW 21:53:13 36° NNE 22:02:16 10° E visible
23 Feb - 23:49:07 10° NW 23:59:10 86° NE 00:09:22 10° SE daylight
24 Feb - 01:55:23 10° WNW 02:03:18 27° SW 02:11:16 10° S daylight
24 Feb - 15:00:14 10° SSW 15:08:54 48° SE 15:17:49 10° ENE night (unlit)
24 Feb - 17:04:27 10° WSW 17:13:31 55° NNW 17:22:58 10° NE visible
24 Feb - 19:12:16 10° WNW 19:20:16 29° N 19:28:32 10° NE visible
24 Feb - 21:19:09 10° NW 21:27:51 35° NNE 21:36:46 10° E visible
24 Feb - 23:23:56 10° NW 23:33:57 80° NE 23:44:08 10° SE daylight
25 Feb - 01:29:53 10° WNW 01:38:11 30° SW 01:46:32 10° S daylight
25 Feb - 14:35:20 10° SSW 14:43:49 43° SE 14:52:30 10° ENE night (unlit)
25 Feb - 16:39:10 10° WSW 16:48:17 59° NNW 16:57:46 10° NE visible
25 Feb - 18:46:51 10° WNW 18:54:53 30° N 19:03:10 10° NE visible
25 Feb - 20:53:55 10° NW 21:02:29 33° NNE 21:11:16 10° ENE visible
25 Feb - 22:58:46 10° NW 23:08:43 75° NE 23:18:52 10° ESE daylight
26 Feb - 01:04:28 10° WNW 01:13:04 33° SW 01:21:45 10° S daylight
26 Feb - 14:10:28 10° SSW 14:18:44 39° SE 14:27:10 10° ENE visible
26 Feb - 16:13:54 10° WSW 16:23:03 64° NW 16:32:34 10° NE night (unlit)
26 Feb - 18:21:27 10° WNW 18:29:30 30° NNW 18:37:50 10° NE visible
26 Feb - 20:28:41 10° NW 20:37:07 32° NNE 20:45:45 10° ENE visible
26 Feb - 22:33:36 10° NW 22:43:28 70° NE 22:53:34 10° ESE visible
27 Feb - 00:39:04 10° WNW 00:47:56 37° SW 00:56:55 10° SSE daylight
27 Feb - 13:45:40 10° S 13:53:39 35° SE 14:01:48 10° ENE visible
27 Feb - 15:48:41 10° WSW 15:57:51 68° NW 16:07:22 10° NE night (unlit)
27 Feb - 17:56:02 10° WNW 18:04:08 31° NNW 18:12:31 10° NE visible
27 Feb - 20:03:27 10° NW 20:11:44 31° NNE 20:20:15 10° ENE visible
27 Feb - 22:08:27 10° NW 22:18:14 65° NE 22:28:15 10° ESE visible
28 Feb - 00:13:43 10° WNW 00:22:48 41° SW 00:32:02 10° SSE daylight
28 Feb - 13:20:54 10° S 13:28:35 31° SE 13:36:23 10° ENE visible
28 Feb - 15:23:28 10° WSW 15:32:39 74° NW 15:42:11 10° NE night (unlit)
28 Feb - 17:30:37 10° WNW 17:38:46 32° NNW 17:47:12 10° NE visible
28 Feb - 19:38:11 10° NW 19:46:21 30° N 19:54:45 10° ENE visible
28 Feb - 21:43:17 10° NW 21:52:58 60° NE 22:02:56 10° ESE visible
